Lapse_Rate
6.1 6.2 6.3 6.4 6.4 6.4 6.3 6.2 5.9 5.9 6.0 5.9 5.9 5.7 5.5 5.4 5.2 5.1 5.1 4.9 4.8 4.7 4.8 4.9 4.8 4.7 4.6 4.6 4.5 4.7 4.7 4.7 4.9 5.0 5.1 5.2 5.2 5.2 5.2 5.2 5.4 5.5 5.6
6.2 6.2 6.2 6.3 6.4 6.3 6.3 6.0 5.8 5.9 5.9 5.8 5.7 5.8 5.6 5.5 5.3 5.1 5.1 4.9 4.8 4.7 4.8 4.9 4.9 4.7 4.6 4.6 4.6 4.7 4.6 4.7 4.8 4.7 4.8 4.9 5.0 5.1 5.1 5.2 5.1 4.8 5.6
6.1 6.3 6.2 6.2 6.3 6.3 6.3 6.0 5.9 5.8 5.7 5.6 5.4 5.6 5.7 5.6 5.4 5.1 5.0 5.0 4.9 4.8 4.7 4.8 4.8 4.8 4.7 4.5 4.6 4.6 4.7 4.7 4.6 4.4 4.4 4.5 4.6 4.7 4.8 4.6 4.6 5.0 5.7
5.9 6.3 6.4 6.3 6.3 6.4 6.3 6.0 5.9 5.8 5.7 5.6 5.6 5.5 5.7 5.7 5.6 5.3 5.0 4.9 4.9 4.9 4.8 4.7 4.7 4.7 4.7 4.6 4.5 4.5 4.5 4.5 4.6 4.5 4.2 4.3 4.3 4.3 4.9 5.1 5.3 5.5 5.6
5.8 6.1 6.4 6.3 6.3 6.3 6.2 6.1 6.0 5.8 5.7 5.6 5.7 5.7 5.8 5.7 5.7 5.5 5.1 5.0 4.9 4.9 4.8 4.8 4.7 4.7 4.6 4.6 4.5 4.4 4.4 4.5 4.6 4.7 4.9 4.6 4.7 4.8 5.0 5.1 5.2 5.3 5.4
5.7 5.9 6.2 6.2 6.3 6.2 6.2 6.1 6.0 6.0 5.8 5.7 5.4 5.6 5.8 5.8 5.8 5.6 5.2 4.8 4.9 4.9 4.8 4.8 4.8 4.6 4.5 4.5 4.5 4.5 4.5 4.5 4.6 4.7 4.8 4.6 4.6 4.8 4.8 4.9 5.1 5.2 5.3
5.7 5.8 5.8 5.8 6.0 5.6 5.9 6.1 6.1 5.9 5.8 5.7 5.6 5.7 5.8 5.8 5.8 5.6 5.2 5.1 5.1 5.1 5.0 4.9 4.8 4.7 4.5 4.4 4.4 4.5 4.5 4.5 4.5 4.5 4.8 4.7 4.7 4.7 4.7 4.9 5.0 5.1 5.2
5.7 5.7 5.9 5.7 5.8 5.5 5.7 5.9 6.0 6.0 5.8 5.7 5.7 5.7 5.8 5.8 5.8 5.8 5.3 5.3 5.2 5.1 5.1 5.0 5.0 4.9 4.7 4.4 4.3 4.4 4.4 4.6 4.6 4.7 4.7 4.7 4.7 4.7 4.8 4.9 4.9 5.0 5.1
6.0 5.8 5.8 5.8 5.7 5.7 5.7 5.6 5.7 5.8 5.8 5.7 5.7 5.8 5.8 5.8 5.7 5.7 5.5 5.3 5.2 5.2 5.2 5.1 5.0 5.0 4.8 4.7 4.5 4.4 4.4 4.5 4.6 4.7 4.8 4.7 4.7 4.7 4.8 4.8 4.9 4.9 5.0
5.9 6.0 5.9 5.8 5.9 5.9 5.7 5.7 5.7 5.8 5.7 5.7 5.8 5.8 5.9 6.0 5.8 5.5 5.5 5.5 5.2 5.1 5.3 5.2 5.2 5.1 5.0 4.9 4.7 4.6 4.5 4.5 4.5 4.6 4.8 4.7 4.7 4.8 4.8 4.8 4.9 4.9 5.0
5.9 5.8 5.7 5.7 5.8 5.9 5.9 5.8 5.7 5.7 5.7 5.7 5.7 5.6 5.9 6.0 5.9 5.6 5.6 5.3 5.3 5.4 5.4 5.5 5.4 5.3 5.3 5.1 5.0 4.9 4.7 4.7 4.6 4.7 4.6 4.6 4.6 4.7 4.8 4.9 4.9 4.9 5.0
5.9 5.9 5.7 5.4 5.4 5.5 5.8 6.0 6.0 5.7 5.7 5.7 5.7 5.7 5.7 5.8 6.0 5.9 5.7 5.3 5.1 5.2 5.4 5.7 5.7 5.7 5.6 5.5 5.3 5.1 5.0 5.0 4.9 5.0 4.8 4.7 4.7 4.7 4.7 4.9 4.9 4.9 5.0
6.0 6.1 6.0 5.9 5.6 5.5 5.4 5.6 6.0 5.8 5.7 5.8 5.7 5.7 5.7 5.8 5.8 5.8 5.9 5.6 5.5 5.4 5.3 5.4 5.6 5.7 5.7 5.8 5.6 5.4 5.3 5.2 5.1 5.2 5.0 5.1 5.0 5.0 4.9 4.9 4.9 4.9 5.0
6.0 6.1 6.0 6.0 5.9 5.7 5.5 5.4 5.7 5.8 5.8 5.5 5.7 5.7 5.7 5.7 5.7 5.8 5.9 5.7 5.7 5.6 5.4 5.2 5.3 5.4 5.5 5.8 5.9 5.8 5.8 5.6 5.5 5.5 5.4 5.3 5.4 5.3 5.2 5.2 5.1 5.1 5.0
5.9 6.0 6.1 6.0 6.0 5.8 5.7 5.7 5.5 5.5 5.7 5.8 5.7 5.7 5.7 5.8 5.7 5.7 5.9 5.6 5.5 5.5 5.5 5.5 5.5 5.4 5.3 5.3 5.7 6.0 6.0 5.8 5.7 5.7 5.7 5.3 5.3 5.4 5.4 5.3 5.2 5.2 5.2
6.1 6.0 5.9 6.0 6.1 6.0 5.8 5.6 5.7 5.6 5.5 5.6 5.8 6.0 5.8 5.7 5.9 5.6 5.7 5.8 5.6 5.5 5.4 5.5 5.5 5.4 5.2 5.1 5.4 5.6 5.7 5.7 5.7 5.8 5.8 5.5 5.4 5.4 5.4 5.5 5.4 5.4 5.4
6.3 6.1 6.0 6.0 6.0 6.0 6.0 5.9 5.7 5.6 5.6 5.5 5.6 5.7 6.0 5.9 6.0 5.8 5.5 5.8 5.8 5.7 5.7 5.2 5.6 5.6 5.4 5.2 5.0 5.3 5.4 5.3 5.4 5.5 5.5 5.7 5.6 5.4 5.4 5.4 5.5 5.5 5.5
6.7 6.5 6.2 6.1 6.0 6.1 5.9 6.0 5.9 5.8 5.7 5.5 5.3 5.5 5.7 5.9 6.0 5.9 5.9 5.7 5.9 5.8 5.5 5.5 5.0 5.4 5.5 5.4 5.1 5.1 5.1 5.2 5.3 5.3 5.3 5.2 5.3 5.4 5.4 5.5 5.4 5.5 5.6
6.1 6.2 6.1 5.7 5.9 5.9 5.9 5.8 5.9 6.0 5.9 5.6 5.5 5.5 5.6 5.8 5.8 5.6 5.8 5.8 5.8 5.7 5.6 5.6 5.4 5.3 5.2 5.5 5.3 5.1 5.1 5.1 5.2 5.2 5.3 5.1 5.3 5.4 5.5 5.4 5.5 5.6 5.6
5.5 5.6 5.7 5.9 5.6 5.7 5.7 5.7 5.8 5.7 5.8 6.1 5.7 5.6 5.6 5.8 6.0 5.7 5.7 5.9 5.5 5.4 5.6 5.7 5.8 5.6 5.3 5.3 5.2 5.3 5.1 5.2 5.0 5.5 5.4 5.3 5.1 5.4 5.3 5.3 5.5 5.8 5.5
5.8 5.8 5.9 5.7 5.9 5.6 5.8 5.7 5.7 5.7 5.7 6.0 6.1 5.9 5.8 5.7 5.9 6.0 5.8 5.8 5.9 5.6 5.9 5.7 5.6 5.4 5.3 5.3 5.3 5.4 5.4 5.2 5.2 5.7 5.7 5.6 5.5 5.6 5.3 5.3 5.4 5.3 5.7
5.5 5.4 5.5 5.8 5.5 5.5 5.4 5.4 5.4 5.4 5.3 5.5 6.0 5.8 5.7 5.6 5.6 5.7 6.0 6.0 6.1 5.7 5.6 5.9 5.6 5.4 5.3 5.2 5.5 5.6 5.4 5.4 5.9 6.0 5.7 5.8 5.8 5.7 5.6 5.6 5.3 5.4 5.3
6.0 6.0 5.9 6.0 6.2 5.7 5.5 5.4 5.5 5.4 5.3 5.3 5.5 6.0 5.6 5.6 5.6 5.5 5.8 6.1 6.2 5.7 5.8 6.2 5.8 5.7 5.4 5.5 5.4 5.5 5.4 5.7 5.8 5.8 5.9 5.7 6.0 5.9 5.9 5.6 5.5 5.2 5.1
6.3 6.4 6.4 6.3 6.4 6.3 5.9 5.6 5.7 5.7 5.5 5.5 5.5 5.8 5.9 5.6 5.7 5.8 5.9 5.9 5.9 6.0 5.8 6.0 5.9 5.8 5.6 5.3 5.6 5.6 5.3 5.4 5.9 5.9 6.0 5.9 6.0 5.9 6.0 5.6 5.5 5.4 5.5
4.9 5.0 5.5 6.0 6.4 6.5 6.5 6.4 6.4 6.0 5.5 5.6 5.4 5.5 5.9 5.8 5.6 5.7 5.8 5.6 6.2 6.3 6.2 6.1 5.9 5.8 5.8 5.7 5.5 6.0 6.1 5.7 5.6 5.5 5.7 5.7 5.4 5.8 5.8 5.5 5.2 5.1 5.3
4.8 5.0 5.7 6.0 5.9 6.0 5.9 6.3 6.7 6.8 6.4 5.5 5.5 5.5 5.6 5.6 5.6 5.6 5.7 5.8 6.0 6.0 5.9 5.8 5.9 5.8 5.8 5.7 5.7 5.6 5.6 5.9 6.3 6.0 5.3 5.2 5.3 5.3 5.2 5.3 5.3 5.1 4.9
Wind_Speed
5 9 15 14 12 11 12 12 13 14 13 12 11 11 11 11 11 11 11 11 11 9 10 11 12 12 11 11 15 14 14 12 13 15 14 13 11 12 13 6 19 14 17
10 12 15 15 14 12 11 12 14 14 13 13 10 11 11 11 12 11 10 10 9 8 9 10 12 13 12 12 14 13 11 9 11 14 16 14 11 12 14 17 14 15 18
12 8 14 14 14 12 10 11 14 15 14 12 14 14 10 11 11 10 11 9 9 8 8 11 12 12 11 12 13 9 7 7 7 12 11 15 11 13 17 18 19 17 16
9 9 12 15 15 13 11 10 14 15 14 12 12 12 11 10 10 8 11 9 10 9 10 11 14 12 11 11 10 8 5 4 3 1 6 15 14 13 14 14 15 15 15
11 11 8 16 14 13 13 12 12 14 14 12 11 12 12 10 9 8 9 9 10 9 13 15 13 12 11 10 9 7 3 1 3 5 6 14 16 11 13 13 13 13 13
9 13 2 17 15 14 13 12 13 13 13 12 13 10 14 11 10 9 8 9 13 15 15 13 12 11 10 8 7 5 1 4 9 8 13 18 15 10 10 11 12 11 11
9 13 8 9 12 13 13 12 12 13 12 11 11 11 11 10 10 10 9 12 14 16 15 13 12 11 9 8 6 4 1 4 7 5 10 17 11 9 9 10 10 10 9
7 12 10 6 12 12 12 12 13 12 12 11 13 12 10 10 10 10 11 13 16 16 14 12 11 10 8 7 7 5 2 5 8 4 16 15 10 8 8 9 8 8 8
7 7 10 9 9 10 12 13 12 12 13 13 14 12 10 11 11 10 12 15 16 16 14 13 11 9 7 8 8 6 4 6 7 4 12 14 9 7 7 7 6 7 7
6 6 7 11 8 10 12 13 14 14 13 13 12 11 12 12 12 13 16 17 16 17 15 13 11 10 8 9 9 6 5 7 8 4 13 14 11 8 6 5 5 5 5
4 6 5 7 10 12 8 15 17 16 15 14 12 12 12 11 12 12 14 17 17 17 16 14 12 11 9 10 9 7 6 9 10 9 12 15 11 8 7 6 5 4 4
5 5 4 4 6 10 10 3 13 13 13 12 14 15 14 14 14 16 17 20 18 17 16 15 13 12 11 12 11 9 9 14 13 7 15 14 10 9 8 7 6 5 5
5 3 5 5 6 6 6 7 4 9 12 13 16 16 15 14 15 15 11 14 13 16 12 13 13 13 13 12 12 13 14 16 11 8 16 15 12 9 9 9 8 8 8
7 7 6 5 5 6 8 5 6 4 9 10 14 15 13 9 6 10 9 13 12 12 10 12 10 12 14 17 13 14 16 13 5 6 18 17 16 12 11 11 11 11 10
8 7 8 7 6 6 6 5 5 4 4 11 14 17 15 7 4 8 9 11 12 13 12 11 11 11 10 12 13 9 8 10 10 8 16 18 17 16 14 13 13 13 13
8 9 8 8 7 6 6 7 5 5 9 8 9 14 14 11 5 5 7 7 10 14 14 11 9 6 7 8 6 8 9 9 13 15 12 19 19 19 18 16 15 15 15
7 7 7 6 7 7 7 7 5 5 9 5 6 10 13 13 8 7 6 8 9 15 15 10 9 9 5 5 6 6 8 10 10 11 11 15 19 21 21 20 20 19 18
7 8 9 8 8 7 7 6 6 6 6 6 6 9 8 11 13 5 6 7 10 10 8 5 4 5 6 5 4 5 5 7 10 10 13 16 16 17 23 24 23 22 21
8 8 9 8 8 9 8 6 7 7 5 6 8 7 11 9 10 5 4 4 12 7 6 5 4 3 3 4 4 5 5 5 6 8 8 12 17 18 16 24 28 27 25
14 9 8 8 8 8 6 5 4 5 5 5 4 5 11 13 13 7 5 5 5 5 5 5 5 4 5 4 4 4 4 4 4 5 6 10 13 16 19 17 18 18 27
18 15 10 8 8 6 5 4 4 4 5 5 5 10 10 11 13 8 6 6 5 5 8 9 6 7 5 4 3 3 3 5 6 5 5 5 6 9 13 17 15 16 18
19 19 16 9 8 8 4 3 4 4 5 3 4 6 11 12 12 11 10 8 9 7 7 9 10 7 6 5 4 2 3 3 10 10 8 7 7 7 7 14 16 17 17
18 16 17 14 8 8 7 4 3 3 3 4 3 3 8 10 11 11 11 10 10 9 8 10 10 10 7 5 9 4 3 4 2 5 11 11 12 7 8 10 13 16 19
21 16 16 15 12 7 8 5 7 5 5 3 4 4 5 9 11 8 10 10 11 8 9 7 6 8 9 9 3 8 10 2 1 3 2 6 8 9 7 5 6 12 15
18 13 12 14 13 7 6 7 5 5 4 4 3 6 8 7 9 10 9 11 8 7 8 11 9 10 8 7 6 2 7 7 7 4 8 4 2 4 5 5 5 5 13
15 13 10 12 8 8 6 6 7 8 6 5 4 4 4 5 7 8 8 9 8 8 9 7 6 8 8 6 5 5 6 3 5 6 8 9 10 4 5 5 5 5 10
Wind_Direction
98 144 155 152 145 148 153 158 150 145 143 142 134 132 127 124 120 123 122 123 121 127 125 126 122 109 94 84 84 79 78 80 84 93 88 86 87 73 59 122 85 87 85
324 150 161 162 154 157 157 161 156 152 151 152 146 144 136 139 136 131 134 135 133 130 130 139 122 106 97 91 89 81 83 87 102 103 101 89 81 76 68 72 88 91 84
332 136 164 162 157 155 163 166 167 160 159 166 159 158 142 152 153 153 148 149 146 142 136 126 116 109 100 90 85 96 90 91 106 124 120 99 83 77 81 80 80 79 74
6 145 165 164 164 160 165 167 174 167 166 176 166 156 147 161 164 168 166 166 146 143 127 122 117 111 106 103 102 99 94 87 98 348 126 109 87 78 75 76 73 80 76
16 7 183 166 173 166 161 167 169 170 171 172 168 171 151 170 174 181 174 167 141 123 133 117 115 117 114 111 107 105 94 16 322 314 113 95 94 78 70 77 74 76 79
7 7 146 173 180 174 169 168 169 173 167 174 179 181 163 172 184 188 180 178 151 131 127 128 126 126 123 119 117 106 34 328 338 64 80 85 90 92 86 84 84 83 82
13 347 24 189 193 191 187 179 175 172 178 181 189 180 167 177 192 192 185 180 158 143 139 141 138 134 134 133 121 113 333 306 314 95 103 101 102 106 99 94 91 86 82
36 344 19 200 200 197 196 204 196 188 186 192 195 179 172 188 197 195 186 175 165 152 148 151 150 150 154 157 144 142 197 268 321 108 105 111 123 121 114 106 102 98 95
20 3 2 350 191 204 205 203 209 210 201 200 206 190 191 197 201 193 183 173 170 157 155 157 160 163 168 181 157 162 196 248 288 270 134 125 133 131 124 119 115 107 104
2 6 3 350 356 199 202 213 212 212 212 215 208 196 203 209 210 191 189 186 177 165 162 163 168 167 167 154 159 175 209 248 260 178 111 137 147 148 141 135 128 118 118
345 334 16 347 341 338 239 197 209 215 214 213 206 203 212 213 213 206 203 193 187 174 168 171 175 174 174 173 175 185 210 242 248 194 142 147 153 164 163 161 163 159 153
307 305 329 322 325 325 314 279 196 198 205 206 200 201 202 211 218 202 198 196 191 182 177 176 179 182 183 183 188 194 219 242 256 164 149 154 161 183 185 188 193 198 201
294 283 271 274 289 311 307 300 268 207 195 204 207 202 190 212 221 194 161 174 176 186 179 180 183 185 203 212 186 192 216 240 226 178 160 165 173 198 206 205 210 218 225
291 285 284 272 273 270 267 282 260 241 209 201 205 207 190 211 199 180 154 170 172 182 189 186 192 201 214 228 197 194 206 221 214 202 173 175 181 198 216 220 221 228 237
282 271 263 252 239 252 261 255 242 249 255 214 194 204 204 195 185 162 163 171 176 177 202 190 196 199 210 229 233 200 216 193 214 223 176 188 192 196 212 225 232 232 237
259 261 253 246 235 234 244 257 253 240 258 266 217 195 196 202 183 183 173 172 183 188 205 204 200 193 195 215 205 225 220 221 208 219 194 195 201 204 207 219 228 233 237
270 275 274 272 238 224 237 242 252 224 243 261 268 221 194 201 198 200 178 174 186 186 198 222 194 195 188 198 204 213 209 223 227 223 213 190 204 213 216 215 220 228 231
278 268 266 266 268 235 230 243 239 248 210 239 251 261 234 197 205 195 195 175 182 178 187 192 204 189 205 191 194 206 212 216 222 226 223 214 195 204 219 218 218 223 227
297 294 283 256 241 240 238 229 237 246 216 211 235 228 232 227 217 209 209 192 173 172 181 183 215 187 200 194 199 208 221 224 215 227 232 223 220 210 204 220 221 223 224
320 279 267 273 253 238 226 233 232 234 246 200 210 232 224 218 219 209 196 199 191 167 175 180 176 209 211 198 203 224 219 238 245 231 222 233 231 222 215 215 220 227 230
313 306 269 255 256 253 222 209 225 232 221 204 212 222 227 225 223 215 209 197 197 184 191 188 183 208 237 202 132 275 255 225 245 251 229 233 243 232 217 220 213 217 226
305 301 296 251 246 248 235 216 206 205 228 195 195 232 234 237 227 215 195 190 199 203 195 204 197 189 217 196 186 154 238 265 240 238 238 235 231 225 234 228 217 219 222
295 288 291 295 235 236 236 222 226 283 267 193 203 219 234 238 244 219 209 196 198 197 205 197 202 202 201 220 202 170 201 228 248 213 227 228 231 224 222 227 220 216 219
290 277 279 285 280 232 222 218 204 211 236 213 184 223 233 235 234 235 218 206 195 193 193 193 202 209 203 217 185 214 247 177 213 332 313 226 218 214 211 212 210 215 214
323 279 273 277 284 241 246 209 209 226 236 219 209 228 222 225 223 232 234 221 207 204 198 197 194 202 211 218 224 180 221 243 239 212 263 285 298 229 213 210 207 204 206
328 329 299 273 276 249 228 237 211 225 226 228 237 258 247 231 224 224 225 227 213 207 207 201 215 216 204 223 223 216 222 203 212 222 240 244 247 248 226 219 205 213 204